Regional Weather Roundup
Issued by NWS

Home | Current Version | Previous Version | Graphics & Text | Print | Product List | Glossary On
Versions: 1 2 3 4 5 6 7 8 9 10 11 12 13 14 15 16 17 18 19 20 21 22 23 24 25 26 27 28 29 30 31 32 33 34 35 36 37 38 39 40 41 42 43 44 45 46 47 48 49 50
000
ASUS43 KIND 290409
RWRIN

WEATHER ROUNDUP FOR INDIANA
NATIONAL WEATHER SERVICE INDIANAPOLIS IN
1100 PM EST SUN DEC 28 2014

NOTE: "FAIR" INDICATES FEW OR NO CLOUDS BELOW 12,000 FEET WITH NO
SIGNIFICANT WEATHER AND/OR OBSTRUCTIONS TO VISIBILITY.

* - STATION DOES NOT REPORT WEATHER SUCH AS PRECIPITATION OR FOG.

+ - STATION NOT QUALITY CONTROLLED BY THE NATIONAL WEATHER SERVICE.
    USE DATA WITH CAUTION...ESPECIALLY DEWPOINT AND RELATIVE
    HUMIDITY OBSERVATIONS.

INZ001>003-010>013-019-020-290500-
NORTHWEST INDIANA

CITY           SKY/WX    TMP DP  RH WIND       PRES   REMARKS
GARY /AIRPORT/ PTCLDY    24  15  70 CALM      30.24R
KNOX *+        FAIR      21  17  83 CALM      30.22R
LA PORTE +     MOCLDY    23  20  86 CALM      30.22S
MICHIGAN CITY+ CLEAR     25  18  74 CALM      30.23S
MONTICELLO +   CLEAR     23  22  96 CALM      30.22S FOG
RENSSELAER +   CLEAR     27  27 100 CALM      30.23S
VALPARAISO     CLEAR     25  16  68 W3        30.23R

$$

LMZ046-743>745-290500-
SOUTHERN LAKE MICHIGAN

STATION/POSITION TIME  TEMP WIND        PRES
                       AIR  DIR/SP/G
                 (UTC) (F)  (DEG/KT/KT) (MB)
MICHIGAN CITY    0400   29  190/  7/  9   N/A

$$

INZ004-005-014>016-021>024-290500-
NORTH CENTRAL INDIANA

CITY           SKY/WX    TMP DP  RH WIND       PRES   REMARKS
GOSHEN         CLEAR     25  23  92 NW3       30.21S
LOGANSPORT +   CLEAR     25  23  93 W3        30.23S
PERU/GRISSOM   CLEAR     22  22 100 W1        30.21S
ROCHESTER +    CLEAR     28  27  93 CALM      30.23R
SOUTH BEND     CLEAR     22  16  78 CALM      30.23R
WARSAW +       CLEAR     25  23  93 CALM      30.22R

$$

INZ006>009-017-018-025>027-290500-
NORTHEAST INDIANA

CITY           SKY/WX    TMP DP  RH WIND       PRES   REMARKS
ANGOLA *+      CLEAR     25  21  86 CALM      30.18S
AUBURN +       CLEAR     27  23  86 W3        30.21S
FORT WAYNE     CLEAR     27  24  89 W6        30.22S WCI  20
HUNTINGTON +   CLEAR     24  20  85 W3        30.22R

$$

INZ028-029-035-036-043>045-051>053-290500-
WEST CENTRAL INDIANA

CITY           SKY/WX    TMP DP  RH WIND       PRES   REMARKS
GREENCASTLE +  CLEAR     23  19  86 CALM      30.23S
LAFAYETTE      CLEAR     20  18  92 CALM      30.24S FOG
TERRE HAUTE    CLEAR     23  20  88 CALM      30.24R

$$

INZ030>032-037>040-046>048-054>057-064-065-290500-
CENTRAL INDIANA

CITY           SKY/WX    TMP DP  RH WIND       PRES   REMARKS
CP ATTERBURY + CLOUDY    30  27  86 MISG      30.24R
FRANKFORT +    FAIR      24  24 100 CALM      30.24R
INDIANAPOLIS   CLEAR     23  20  88 N3        30.21F
-EAGLE CREEK   CLEAR     24  20  84 CALM      30.22S
KOKOMO *+      CLEAR     25  21  86 CALM      30.22S
MARION +       CLEAR     26  24  94 W3        30.22S
MT COMFORT *+  PTCLDY    25  23  93 CALM      30.22S
SHELBYVILLE    PTCLDY    30  23  75 CALM      30.22R
ZIONSVILLE +   CLEAR     24  21  88 CALM      30.23R

$$

INZ033-034-041-042-049-050-058-059-290500-
EAST CENTRAL INDIANA

CITY           SKY/WX    TMP DP  RH WIND       PRES   REMARKS
MUNCIE         CLEAR     26  23  88 CALM      30.21S

$$

INZ060-061-067>069-081>083-085>088-290500-
SOUTHWEST INDIANA

CITY           SKY/WX    TMP DP  RH WIND       PRES   REMARKS
EVANSVILLE     CLOUDY    35  27  72 N5        30.25R WCI  31
HUNTINGBURG *+ CLOUDY    32  27  80 N3        30.24R
WASHINGTON +   CLOUDY    29  23  78 N5        30.24S WCI  24

$$

INZ062-063-066-070>080-084-089>092-290500-
SOUTH CENTRAL AND SOUTHEAST INDIANA

CITY           SKY/WX    TMP DP  RH WIND       PRES   REMARKS
BLOOMINGTON    PTCLDY    26  24  92 CALM      30.22R

$$




USA.gov is the U.S. government's official web portal to all federal, state and local government web resources and services.